Weather WX

World > North America > United States > Ohio

Lucas, Ohio Regional Weather

Lat: 40.70N, Lon: 82.42W
Wx Zone: OHZ029
Warning FLW WEATHER ALERT - FLASH FLOOD WATCH (More Info. Click Here) Warning
Feedback

Lucas, OH Regional Weather

Expires:201906161900;;171640
ASUS41 KCLE 161812
RWRCLE
OHIO REGIONAL WEATHER ROUNDUP
NATIONAL WEATHER SERVICE WILMINGTON, OH
200 PM EDT SUN JUN 16 2019

NOTE: "FAIR" INDICATES FEW OR NO CLOUDS BELOW 12,000 FEET WITH NO
SIGNIFICANT WEATHER AND/OR OBSTRUCTIONS TO VISIBILITY.


OHZ009>014-019>023-028>033-038-089-161900-
   NORTHEAST OHIO
  
CITY           SKY/WX    TMP DP  RH WIND       PRES   REMARKS
CLE-HOPKINS    CLOUDY    73  68  84 CALM      29.82F                  
CLE-LAKEFRONT  CLOUDY    63  61  93 NE16      29.81F                  
CUY CO. ARPT   CLOUDY    68  66  94 NW5       29.84S FOG              
LORAIN-ELYRIA  CLOUDY    75  65  70 SW12      29.81F                  
ASHTABULA      RAIN      59  59 100 NE5       29.87S FOG              
AKRON-CANTON   CLOUDY    72  66  81 SW12      29.85F                  
WOOSTER        CLOUDY    73  67  81 W9        29.85S                  
MANSFIELD      CLOUDY    73  67  81 SW15      29.86R                  
YOUNGSTOWN     CLOUDY    69  66  90 SW7       29.85S                  
$$
 

SKY/WX - Weather  TMP - Temperature  DP - Dew Point  RH - Relative Humidity
WIND - Wind Direction/Speed PRES - Barometric Pressure VSB - Visibility
WCI - Wind Chill Index E13G22 Wind - East Wind 13 mph/Gusts of 22 mph